Regional Weather Roundup
Issued by NWS Sioux Falls, SD

Home | Current Version | Previous Version | Graphics & Text | Print | Product List | Glossary Off
Versions: 1 2 3 4 5 6 7 8 9 10 11 12 13 14 15 16 17 18 19 20 21 22 23 24 25 26 27 28 29 30 31 32 33 34 35 36 37 38 39 40 41 42 43 44 45 46 47 48 49 50

000
ASUS43 KFSD 262102
RWRFSD

WEATHER ROUNDUP FOR SE SOUTH DAKOTA/SW MINNESOTA/NW IOWA
NATIONAL WEATHER SERVICE SIOUX FALLS SD
400 PM CDT TUE MAY 26 2015

NOTE: "FAIR" INDICATES FEW OR NO CLOUDS BELOW 12,000 FEET WITH NO
SIGNIFICANT WEATHER AND OR OBSTRUCTIONS TO VISIBILITY.


SDZ038>040-050-052>070-262200-
SOUTHEAST SOUTH DAKOTA

CITY           SKY/WX    TMP DP  RH WIND       PRES   REMARKS
BROOKINGS      CLOUDY    66  52  59 N14       29.84S
CHAMBERLAIN    PTSUNNY   74  49  40 N7        29.88S
HURON          MOSUNNY   77  50  38 NE12      29.84S
MADISON        FAIR      66  52  59 NW17      29.85S
MITCHELL       PTSUNNY   74  55  51 E6        29.86S
SIOUX FALLS    CLOUDY    66  56  70 N9        29.83S
WINNER         FAIR      75  46  35 NW9G18    29.91F
YANKTON        MOSUNNY   72  52  49 NW16      29.83F
$$

MNZ071-072-080-081-089-090-097-098-262200-
SOUTHWEST MINNESOTA

CITY           SKY/WX    TMP DP  RH WIND       PRES   REMARKS
FAIRMONT       CLOUDY    59  54  82 NW10      29.79S
JACKSON        DRIZZLE   57  57 100 N10       29.82R
LUVERNE        CLOUDY    61  54  77 N6        29.84F
MARSHALL       CLOUDY    61  52  72 N3        29.82S
MONTEVIDEO     CLOUDY    66  57  72 SE5       29.82S
REDWOOD FALLS  CLOUDY    58  56  93 NW3       29.81S
TRACY          CLOUDY    59  56  91 N3        29.83S
WINDOM         LGT RAIN  57  55  94 N8        29.82S
WORTHINGTON    CLOUDY    57  52  82 NW12      29.83S
$$

IAZ001>003-012>014-020>022-031-032-NEZ013-014-SDZ071-262200-
NORTHWEST IOWA

CITY           SKY/WX    TMP DP  RH WIND       PRES   REMARKS
DENISON        PTSUNNY   63  63 100 CALM      29.80R
ESTHERVILLE    LGT RAIN  59  57  93 NW10      29.80S
LE MARS        CLOUDY    61  55  82 NW9       29.85S
SIOUX CITY     PTSUNNY   65  56  72 NW12      29.83F
SPENCER        LGT RAIN  60  58  92 NW12      29.81S
$$

ABBREVIATIONS USED IN REMARKS
   TC - TEMPERATURE IN CELSIUS
  WCI - WIND CHILL INDEX
   HX - HEAT INDEX
  VSB - VISIBILITY



USA.gov is the U.S. government's official web portal to all federal, state and local government web resources and services.